Location: Newark
(41.1192°N, 81.5292°W)
Time: 04:01:26
(UTC+00:00)

LightSail 2 - Visible Passes

Search period start: 13 November 2019 00:00
Search period end: 23 November 2019 00:00
Orbit: 701 x 726 km, 24.0° (Epoch: 11 November)

Date Brightness Start Highest point End Pass type
(mag) Time Alt. Az. Time Alt. Az. Time Alt. Az.
13 Nov 7.6 09:59:14 10° S 10:00:23 11° S 10:01:52 10° SSE visible
14 Nov 7.6 10:46:19 10° SSW 10:47:21 11° S 10:48:23 10° S visible
15 Nov 7.6 09:49:45 11° S 09:49:45 11° S 09:51:11 10° SSE visible
